Weather History for Port Angeles, WA

Change the Weather History Date:

Friday, July 5, 2013

  Actual Average Record
Temperature  
Mean Temperature 60 °F -  
Max Temperature 70 °F 65 °F 86 °F (1972)
Min Temperature 51 °F 50 °F 43 °F (1951)
Degree Days  
Heating Degree Days 5    
Growing Degree Days 10 (Base 50)    
Moisture  
Dew Point 52 °F    
Average Humidity 75    
Maximum Humidity 90    
Minimum Humidity 53    
Precipitation  
Precipitation 0.00 in - - ()
Sea Level Pressure  
Sea Level Pressure 30.01 in    
Wind  
Wind Speed 6 mph (WNW)    
Max Wind Speed 10 mph    
Max Gust Speed -    
Visibility 10 miles    
Events      
Averages and records for this station are not official NWS values.
T = Trace of Precipitation, MM = Missing Value Source: NWS Daily Summary

Daily Weather History Graph

Daily Weather History Graph

Search for Another Location

Airport:

Trip Planner

Search our weather history database for the weather conditions in past years. The results will help you decide how hot, cold, wet, or windy it might be!

Date:

Astronomy

Jul. 05, 2013 Rise Set
Actual Time 5:20 AM PDT 9:15 PM PDT
Civil Twilight 4:40 AM PDT 9:56 PM PDT
Nautical Twilight 3:44 AM PDT 10:52 PM PDT
Astronomical Twilight 2:15 AM PDT 12:19 AM PDT
Moon 3:29 AM PDT (7/5) 7:11 PM PDT (7/5)
Length of Visible Light 17h 16m
Length of Day
15h 54m
Waning Crescent, 6% of the Moon is Illuminated
Jul 5
Waning Crescent
Jul 8
New
Jul 15
First Quarter
Jul 22
Full
Jul 29
Last Quarter

Hourly Weather History & Observations

Time (PDT) Temp. Dew Point Humidity Pressure Visibility Wind Dir Wind Speed Gust Speed Precip Events Conditions
12:53 AM 54.0 °F 51.1 °F 90% 30.05 in 10.0 mi West 8.1 mph - N/A   Clear
1:53 AM 54.0 °F 51.1 °F 90% 30.05 in 10.0 mi WNW 8.1 mph - N/A   Partly Cloudy
2:53 AM 54.0 °F 51.1 °F 90% 30.04 in 10.0 mi West 6.9 mph - N/A   Scattered Clouds
3:53 AM 55.0 °F 51.1 °F 86% 30.03 in 10.0 mi WNW 6.9 mph - N/A   Overcast
4:53 AM 53.1 °F 48.9 °F 86% 30.03 in 10.0 mi WNW 3.5 mph - N/A   Clear
5:53 AM 51.1 °F 48.0 °F 89% 30.03 in 10.0 mi WSW 4.6 mph - N/A   Clear
6:53 AM 55.9 °F 50.0 °F 80% 30.02 in 10.0 mi West 5.8 mph - N/A   Clear
7:53 AM 59.0 °F 52.0 °F 78% 30.03 in 10.0 mi Calm Calm - N/A   Clear
8:53 AM 61.0 °F 53.1 °F 75% 30.04 in 10.0 mi NNE 3.5 mph - N/A   Clear
9:53 AM 61.0 °F 52.0 °F 72% 30.03 in 10.0 mi Variable 5.8 mph - N/A   Clear
10:53 AM 63.0 °F 52.0 °F 67% 30.03 in 10.0 mi NE 5.8 mph - N/A   Clear
11:53 AM 66.9 °F 51.1 °F 57% 30.03 in 10.0 mi ESE 9.2 mph - N/A   Clear
12:53 PM 68.0 °F 51.1 °F 55% 30.02 in 10.0 mi Variable 6.9 mph - N/A   Clear
1:53 PM 69.1 °F 51.1 °F 53% 30.01 in 10.0 mi East 10.4 mph - N/A   Clear
2:53 PM 66.0 °F 54.0 °F 65% 30.01 in 10.0 mi Variable 5.8 mph - N/A   Partly Cloudy
3:53 PM 68.0 °F 53.1 °F 59% 30.00 in 10.0 mi NNE 5.8 mph - N/A   Scattered Clouds
4:53 PM 66.9 °F 53.1 °F 61% 30.00 in 10.0 mi NNW 4.6 mph - N/A   Partly Cloudy
5:53 PM 64.0 °F 52.0 °F 65% 29.98 in 10.0 mi NNW 6.9 mph - N/A   Clear
6:53 PM 64.0 °F 53.1 °F 67% 29.98 in 10.0 mi NW 8.1 mph - N/A   Clear
7:53 PM 62.1 °F 53.1 °F 72% 29.98 in 10.0 mi WNW 4.6 mph - N/A   Clear
8:53 PM 59.0 °F 53.1 °F 81% 29.98 in 10.0 mi WNW 3.5 mph - N/A   Clear
9:53 PM 55.9 °F 53.1 °F 90% 29.99 in 10.0 mi WNW 3.5 mph - N/A   Clear
10:53 PM 55.9 °F 52.0 °F 87% 29.99 in 10.0 mi WSW 4.6 mph - N/A   Clear
11:53 PM 55.0 °F 52.0 °F 89% 29.99 in 10.0 mi WSW 4.6 mph - N/A   Clear